Regional Weather Roundup
Issued by NWS Jackson, KY

Home | Current Version | Previous Version | Graphics & Text | Print | Product List | Glossary On
Versions: 1 2 3 4 5 6 7 8 9 10 11 12 13 14 15 16 17 18 19 20 21 22 23 24 25 26 27 28 29 30 31 32 33 34 35 36 37 38 39 40 41 42 43 44 45 46 47 48 49 50
000
ASUS43 KJKL 012110
RWRJKL

EAST KENTUCKY HOURLY WEATHER ROUNDUP
NATIONAL WEATHER SERVICE JACKSON KY
500 PM EDT MON SEP 01 2014

NOTE: "FAIR" INDICATES FEW OR NO CLOUDS BELOW 12,000 FEET WITH
NO SIGNIFICANT WEATHER AND/OR OBSTRUCTIONS TO VISIBILITY.

* THESE REPORTS ARE NOT UNDER NWS QUALITY CONTROL AND MAY NOT
  REPORT WEATHER SUCH AS PRECIPITATION AND FOG.

KYZ079-080-083-085-087-088-110-112-115-119-120-012200
...EASTERN KENTUCKY...

CITY           SKY/WX    TMP DP  RH WIND       PRES   REMARKS
JACKSON        MOSUNNY   87  69  54 VRB5      30.04S HX  91
LONDON         MOSUNNY   90  64  42 SW13      30.04S HX  91
SOMERSET*      MOSUNNY   88  63  42 SW13G18   30.03F
MONTICELLO*    SUNNY     89  69  51 SW14      30.04F HX  93
WILLIAMSBURG*  MOSUNNY   86  68  54 SW8       30.04F
MIDDLESBORO*   SUNNY     87  72  59 S7        30.06F HX  93
HARLAN APT*    PTCLDY    88  63  42 MISG      30.07F
HAZARD APT*    PTCLDY    86  68  54 SW9G17    30.04S
BLACK MTN*       N/A     72  68  88 S3          N/A
PIKEVILLE APT* SUNNY     82  68  61 SW6       30.06S
BIG SANDY*     MOCLDY    85  69  60 SW8       30.04R
MOREHEAD APT*  CLOUDY    77  70  78 S10       30.02F
$$

KYZ035-036-041-042-044-050-067-078-099-012200
...CENTRAL KENTUCKY...

CITY           SKY/WX    TMP DP  RH WIND       PRES   REMARKS
MT STERLING*   PTSUNNY   82  73  74 SW8G18    30.01S
FLEMING/MASON* MOSUNNY   81  73  78 SW14G22   30.00R
DANVILLE*      PTSUNNY   84  72  65 SW10      30.00F
RICHMOND*      PTSUNNY   84  70  61 SW8       29.99F
LEXINGTON      MOSUNNY   85  71  63 SW15      29.99S HX  90
FRANKFORT      PTSUNNY   83  72  69 SW10G21   29.96S
$$

KYZ091>093-OHZ055-061-077-WVZ005-015-034-035-042-012200
...SOUTHERN OHIO/WEST VIRGINIA...

CITY           SKY/WX    TMP DP  RH WIND       PRES   REMARKS
COVINGTON      PTSUNNY   84  69  60 SW14G22   29.93F
COLUMBUS       LGT RAIN  83  71  67 SW16G24   29.91S
DAYTON         PTSUNNY   85  71  63 SW14      29.91S HX  90
WILMINGTON     MOSUNNY   84  70  62 SW14      29.92F
HUNTINGTON     LGT RAIN  72  70  93 S7        30.01F
CHARLESTON     MOSUNNY   85  68  56 SW9G22    29.99F
BECKLEY        MOSUNNY   81  63  54 W8        30.13S
BLUEFIELD      SUNNY     82  62  50 W12G22    30.16F
$$

VAZ002-007-008-TNZ017-027-036-066-071-012200
...SOUTHWEST VIRGINIA/EAST TENNESSEE...

CITY           SKY/WX    TMP DP  RH WIND       PRES   REMARKS
WISE*          MOSUNNY   81  64  57 S9        30.16F
JONESVILLE*      N/A     86  66  51 W7        30.10S
ABINGDON*      SUNNY     86  65  48 W9        30.12F
BRISTOL        MOSUNNY   88  63  43 SW10      30.09F
KNOXVILLE      MOSUNNY   88  68  51 SW16      30.04F HX  91
OAK RIDGE      MOSUNNY   89  69  51 SW6       30.06F HX  93
CROSSVILLE     SUNNY     85  65  51 W10       30.11F
NASHVILLE      PTSUNNY   89  68  49 W8        30.01F HX  93
$$

...KEY TO REMARKS...
VSB - VISIBILITY IN MILES
WCI - WIND CHILL INDEX
HX  - HEAT INDEX

$$



USA.gov is the U.S. government's official web portal to all federal, state and local government web resources and services.